| time (UTC) | temp C | wind direction | speed KPH | gust KPH | rain 1hr cm | rain 24hr cm | rain mn cm | humidity % | barometer mb |
| 20260904023037 | 17 | 350 | 20.9 | 27.4 | 0.00 | 0.00 | 0.00 | 45 | 1006.4 |
| 20260904021537 | 17 | 348 | 14.5 | 19.3 | 0.00 | 0.00 | 0.00 | 45 | 1006.5 |
| 20260904020015 | 18 | 337 | 12.9 | 16.1 | 0.00 | 0.00 | 0.00 | 43 | 1006.4 |
| 20260904014513 | 20 | 331 | 11.3 | 22.5 | 0.00 | 0.00 | 0.00 | 39 | 1006.4 |
| 20260904013055 | 21 | 330 | 17.7 | 24.1 | 0.00 | 0.00 | 0.00 | 36 | 1006.3 |
| 20260904011554 | 22 | 336 | 14.5 | 19.3 | 0.00 | 0.00 | 0.00 | 34 | 1006.3 |
| 20260904010045 | 23 | 333 | 17.7 | 25.7 | 0.00 | 0.00 | 0.00 | 33 | 1006.2 |
| 20260904004535 | 24 | 289 | 12.9 | 20.9 | 0.00 | 0.00 | 0.00 | 30 | 1006.2 |
| 20260904003025 | 24 | 283 | 16.1 | 24.1 | 0.00 | 0.00 | 0.00 | 29 | 1006.3 |
| 20260904001518 | 24 | 271 | 19.3 | 29.0 | 0.00 | 0.00 | 0.00 | 26 | 1006.1 |
| 20260904000059 | 25 | 246 | 25.7 | 35.4 | 0.00 | 0.00 | 0.00 | 25 | 1006.0 |
| 20260903234556 | 25 | 254 | 25.7 | 33.8 | 0.00 | 0.00 | 0.00 | 26 | 1005.9 |
| 20260903233041 | 25 | 275 | 24.1 | 38.6 | 0.00 | 0.10 | 0.00 | 26 | 1005.8 |
| 20260903231536 | 25 | 259 | 29.0 | 41.8 | 0.00 | 0.10 | 0.00 | 26 | 1005.7 |
| 20260903230022 | 25 | 223 | 33.8 | 41.8 | 0.00 | 0.10 | 0.00 | 25 | 1005.7 |
| 20260903224516 | 25 | 223 | 35.4 | 48.3 | 0.00 | 0.10 | 0.00 | 25 | 1005.5 |
| 20260903223059 | 25 | 246 | 35.4 | 48.3 | 0.00 | 0.10 | 0.00 | 25 | 1005.5 |
| 20260903221557 | 25 | 216 | 22.5 | 46.7 | 0.00 | 0.10 | 0.00 | 26 | 1005.4 |
| 20260903220049 | 25 | 229 | 30.6 | 43.5 | 0.00 | 0.10 | 0.00 | 27 | 1005.1 |
| 20260903214538 | 25 | 244 | 32.2 | 49.9 | 0.00 | 0.10 | 0.00 | 26 | 1005.0 |
| 20260903213020 | 25 | 237 | 35.4 | 51.5 | 0.00 | 0.10 | 0.00 | 27 | 1005.0 |
| 20260903211519 | 25 | 221 | 30.6 | 48.3 | 0.00 | 0.10 | 0.00 | 27 | 1004.9 |
| 20260903210001 | 25 | 239 | 33.8 | 45.1 | 0.00 | 0.10 | 0.00 | 27 | 1004.9 |
| 20260903204619 | 25 | 217 | 20.9 | 33.8 | 0.00 | 0.10 | 0.00 | 28 | 1004.9 |
| 20260903203040 | 23 | 238 | 24.1 | 40.2 | 0.00 | 0.10 | 0.00 | 29 | 1004.9 |
| 20260903201540 | 24 | 233 | 22.5 | 46.7 | 0.00 | 0.10 | 0.00 | 28 | 1004.9 |
| 20260903200022 | 23 | 250 | 27.4 | 37.0 | 0.00 | 0.10 | 0.00 | 30 | 1004.9 |
| 20260903194521 | 24 | 244 | 30.6 | 41.8 | 0.00 | 0.10 | 0.00 | 29 | 1004.8 |
| 20260903193101 | 23 | 245 | 29.0 | 48.3 | 0.00 | 0.10 | 0.00 | 30 | 1004.8 |
| 20260903191601 | 23 | 207 | 29.0 | 48.3 | 0.00 | 0.10 | 0.00 | 30 | 1004.9 |
| 20260903190041 | 23 | 212 | 24.1 | 46.7 | 0.00 | 0.10 | 0.00 | 31 | 1004.8 |
| 20260903184544 | 23 | 212 | 27.4 | 48.3 | 0.00 | 0.10 | 0.00 | 31 | 1004.8 |
| 20260903183023 | 23 | 237 | 33.8 | 45.1 | 0.00 | 0.10 | 0.00 | 31 | 1004.6 |
| 20260903181521 | 22 | 231 | 29.0 | 49.9 | 0.00 | 0.10 | 0.00 | 32 | 1004.8 |
| 20260903180003 | 22 | 232 | 24.1 | 35.4 | 0.00 | 0.10 | 0.00 | 35 | 1004.8 |
| 20260903174558 | 21 | 230 | 19.3 | 29.0 | 0.00 | 0.10 | 0.00 | 41 | 1005.0 |
| 20260903173035 | 19 | 232 | 12.9 | 17.7 | 0.00 | 0.10 | 0.00 | 46 | 1005.2 |
| 20260903171531 | 18 | 186 | 1.6 | 11.3 | 0.00 | 0.10 | 0.00 | 50 | 1005.3 |
| 20260903170009 | 17 | 171 | 4.8 | 9.7 | 0.00 | 0.10 | 0.00 | 54 | 1005.4 |
| 20260903164505 | 15 | 176 | 3.2 | 8.0 | 0.00 | 0.10 | 0.00 | 59 | 1005.4 |
| 20260903163047 | 15 | 202 | 3.2 | 6.4 | 0.00 | 0.10 | 0.10 | 61 | 1005.2 |
| 20260903161544 | 13 | 291 | 1.6 | 8.0 | 0.00 | 0.10 | 0.10 | 65 | 1005.3 |
| 20260903160051 | 13 | 182 | 3.2 | 6.4 | 0.00 | 0.10 | 0.10 | 67 | 1005.4 |
| 20260903154525 | 12 | 182 | 6.4 | 12.9 | 0.00 | 0.10 | 0.10 | 68 | 1005.4 |
| 20260903153008 | 12 | 184 | 14.5 | 17.7 | 0.00 | 0.10 | 0.10 | 71 | 1005.6 |
| 20260903151506 | 12 | 203 | 8.0 | 11.3 | 0.00 | 0.10 | 0.10 | 72 | 1005.4 |
| 20260903144555 | 10 | 195 | 6.4 | 9.7 | 0.00 | 0.10 | 0.10 | 74 | 1005.2 |
| 20260903143030 | 10 | 202 | 8.0 | 12.9 | 0.00 | 0.10 | 0.10 | 76 | 1005.2 |
| 20260903141529 | 9 | 209 | 9.7 | 12.9 | 0.00 | 0.10 | 0.10 | 77 | 1005.1 |
| 20260903140011 | 9 | 209 | 9.7 | 12.9 | 0.00 | 0.10 | 0.10 | 75 | 1004.9 |
| 20260903134510 | 9 | 191 | 11.3 | 16.1 | 0.00 | 0.10 | 0.10 | 77 | 1004.7 |
| 20260903133058 | 8 | 184 | 12.9 | 16.1 | 0.00 | 0.10 | 0.10 | 77 | 1004.5 |
| 20260903131550 | 8 | 192 | 11.3 | 14.5 | 0.00 | 0.10 | 0.10 | 77 | 1004.3 |
| 20260903130031 | 8 | 188 | 12.9 | 16.1 | 0.00 | 0.10 | 0.10 | 77 | 1004.4 |
| 20260903124529 | 8 | 202 | 12.9 | 16.1 | 0.00 | 0.10 | 0.10 | 76 | 1004.2 |
| 20260903123016 | 8 | 183 | 14.5 | 17.7 | 0.00 | 0.10 | 0.10 | 76 | 1004.2 |
| 20260903121511 | 8 | 182 | 16.1 | 19.3 | 0.00 | 0.10 | 0.10 | 76 | 1004.0 |
| 20260903120110 | 8 | 182 | 16.1 | 20.9 | 0.00 | 0.10 | 0.10 | 76 | 1004.0 |
| 20260903114552 | 8 | 205 | 12.9 | 16.1 | 0.00 | 0.10 | 0.10 | 75 | 1004.1 |
| 20260903113051 | 8 | 185 | 9.7 | 19.3 | 0.00 | 0.10 | 0.10 | 77 | 1004.1 |
| 20260903111533 | 7 | 156 | 12.9 | 16.1 | 0.00 | 0.10 | 0.10 | 78 | 1004.1 |
| 20260903110030 | 7 | 169 | 9.7 | 14.5 | 0.00 | 0.10 | 0.10 | 78 | 1004.0 |
| 20260903104508 | 8 | 226 | 8.0 | 11.3 | 0.00 | 0.10 | 0.10 | 75 | 1003.9 |
| 20260903103012 | 9 | 157 | 11.3 | 17.7 | 0.00 | 0.10 | 0.10 | 72 | 1004.2 |
| 20260903101553 | 9 | 230 | 8.0 | 9.7 | 0.00 | 0.10 | 0.10 | 73 | 1003.9 |
| 20260903100050 | 8 | 230 | 6.4 | 8.0 | 0.00 | 0.10 | 0.10 | 73 | 1003.9 |
| 20260903094536 | 8 | 230 | 3.2 | 4.8 | 0.00 | 0.10 | 0.10 | 74 | 1003.8 |
| 20260903093040 | 8 | 230 | 3.2 | 6.4 | 0.00 | 0.10 | 0.10 | 73 | 1003.9 |
| 20260903091512 | 10 | 230 | 4.8 | 6.4 | 0.00 | 0.10 | 0.10 | 71 | 1003.8 |
| 20260903090025 | 10 | 230 | 4.8 | 6.4 | 0.00 | 0.10 | 0.10 | 71 | 1003.9 |
| 20260903084554 | 9 | 230 | 6.4 | 8.0 | 0.00 | 0.10 | 0.10 | 75 | 1003.8 |
| 20260903083056 | 8 | 278 | 4.8 | 11.3 | 0.00 | 0.10 | 0.10 | 76 | 1003.6 |
| 20260903081539 | 8 | 281 | 8.0 | 11.3 | 0.00 | 0.10 | 0.10 | 77 | 1003.5 |
| 20260903080034 | 8 | 265 | 6.4 | 9.7 | 0.00 | 0.10 | 0.10 | 78 | 1003.6 |
| 20260903074513 | 8 | 267 | 6.4 | 9.7 | 0.00 | 0.10 | 0.10 | 76 | 1003.5 |
| 20260903073023 | 9 | 213 | 9.7 | 11.3 | 0.00 | 0.10 | 0.10 | 74 | 1003.5 |
| 20260903071559 | 10 | 202 | 11.3 | 12.9 | 0.00 | 0.10 | 0.10 | 73 | 1003.5 |
| 20260903070050 | 10 | 180 | 14.5 | 16.1 | 0.00 | 0.10 | 0.10 | 74 | 1003.7 |
| 20260903064540 | 10 | 177 | 16.1 | 22.5 | 0.00 | 0.10 | 0.10 | 74 | 1003.5 |
| 20260903063032 | 10 | 184 | 16.1 | 20.9 | 0.00 | 0.10 | 0.10 | 74 | 1003.4 |
| 20260903061516 | 10 | 176 | 17.7 | 19.3 | 0.00 | 0.10 | 0.10 | 72 | 1003.2 |
| 20260903060013 | 10 | 196 | 12.9 | 16.1 | 0.00 | 0.10 | 0.10 | 75 | 1003.6 |
| 20260903054601 | 10 | 204 | 11.3 | 12.9 | 0.00 | 0.10 | 0.10 | 76 | 1003.9 |
| 20260903053056 | 10 | 207 | 11.3 | 16.1 | 0.00 | 0.10 | 0.10 | 75 | 1004.2 |
| 20260903051554 | 10 | 216 | 9.7 | 12.9 | 0.00 | 0.10 | 0.10 | 76 | 1004.1 |
| 20260903050050 | 11 | 179 | 9.7 | 11.3 | 0.00 | 0.10 | 0.10 | 73 | 1003.9 |
| 20260903044554 | 11 | 13 | 9.7 | 12.9 | 0.00 | 0.10 | 0.10 | 72 | 1004.0 |
| 20260903043049 | 11 | 13 | 8.0 | 12.9 | 0.00 | 0.10 | 0.10 | 75 | 1004.0 |
| 20260903041547 | 11 | 13 | 9.7 | 14.5 | 0.00 | 0.10 | 0.10 | 74 | 1003.8 |
| 20260903040044 | 12 | 13 | 9.7 | 14.5 | 0.00 | 0.10 | 0.10 | 74 | 1004.0 |
| 20260903034530 | 12 | 13 | 12.9 | 16.1 | 0.00 | 0.10 | 0.10 | 74 | 1004.0 |
| 20260903033036 | 12 | 13 | 17.7 | 20.9 | 0.00 | 0.10 | 0.10 | 73 | 1003.9 |
| 20260903031634 | 13 | 14 | 16.1 | 24.1 | 0.00 | 0.10 | 0.10 | 72 | 1003.8 |
| 20260903030101 | 13 | 14 | 22.5 | 32.2 | 0.00 | 0.10 | 0.10 | 70 | 1003.6 |
| 20260903024540 | 13 | 136 | 27.4 | 37.0 | 0.00 | 0.10 | 0.10 | 69 | 1002.8 |